Location: Newark
(49.8969°N, 3.3422°E)
Time: 21:07:20
(UTC+00:00)

A-11 Canister half - Pass Details

Date: 27 January 2020
Orbit: 1517 x 1683 km, 47.2° (Epoch: 22 February)

Event Time Altitude Azimuth Distance (km) Brightness Sun altitude
Rises 23:36:15 0° 239° (WSW) 4,742 - -58.2°
Reaches altitude 10° 23:39:23 10° 236° (SW) 3,739 - -58.2°
Maximum altitude 23:48:36 62° 159° (SSE) 1,687 - -58.4°
Drops below altitude 10° 23:57:39 10° 82° (E) 3,681 - -58.5°
Sets 00:00:43 0° 79° (E) 4,665 - -58.5°
